Location: Auckland
(36.8670°S, 174.7670°E)
Time: 16:33:33
(UTC+12:00)

A-11 Canister half - Pass Details

Date: 29 July 2019
Orbit: 1526 x 1683 km, 47.3° (Epoch: 19 August)

Event Time Altitude Azimuth Distance (km) Brightness Sun altitude
Rises 06:30:49 0° 308° (NW) 4,671 11.2 -10.6°
Reaches altitude 10° 06:33:49 10° 309° (NW) 3,692 10.7 -10.0°
Maximum altitude 06:43:09 85° 35° (NE) 1,552 9.1 -8.2°
Drops below altitude 10° 06:52:43 10° 122° (ESE) 3,776 11.6 -6.4°
Sets 06:55:50 0° 122° (ESE) 4,782 12.2 -5.8°
